Date String (YYYY-MM-DD hh:mm:ss) UTC,Instrument flags,absolute air pressure of the measurement (hPa),sample flow rate (lpm),inlet stack bypass flow (lpm),air temperature of the measurement (°C),ambient temperature measured by the external sensor (°C),aerosol sample conditioner tube jacket temperature (°C),OPC LED temperature (°C),internal box temperature (°C),relative humidity of the measurement (%),span deviation,mass concentration of particles derived from Lorenz-Mie calculation of OPC scattering (μg/m³),mass concentration of particles derived from Lorenz-Mie calculation of OPC scattering (μg/m³),mass concentration of particles derived from Lorenz-Mie calculation of OPC scattering (μg/m³)
DateTimeUTC,F1_M11,P_M11,Q1_M11,Q2_M11,T1_M11,T2_M11,T3_M11,T4_M11,T5_M11,U1_M11,ZSPAN_M11,X2_M11,X0_M11,X1_M11
2024-01-01 18:00:00,SystemResetWarning,0831.3,5.00,000.00,022.0,021.5,000.0,030.1,023.6,15.2,0000.0,0004.13,0007.46,0003.86
2024-01-01 18:01:00,SystemResetWarning,0831.3,5.00,000.00,022.0,021.5,000.0,030.1,023.6,15.6,0000.0,0004.13,0007.47,0003.86
2024-01-01 18:02:00,SystemResetWarning,0831.3,5.00,000.00,022.1,021.6,000.0,030.2,023.7,15.5,0000.0,0004.08,0007.38,0003.84
2024-01-01 18:03:00,SystemResetWarning,0831.3,4.99,000.00,022.1,021.6,000.0,030.2,023.7,15.3,0000.0,0004.05,0007.85,0003.82
2024-01-01 18:04:00,SystemResetWarning,0831.3,5.00,000.00,022.1,021.6,000.0,030.2,023.7,15.0,0000.0,0004.05,0008.06,0003.80
2024-01-01 18:05:00,SystemResetWarning,0831.3,5.00,000.00,022.1,021.6,000.0,030.2,023.7,14.5,0000.0,0004.00,0007.97,0003.77
2024-01-01 18:06:00,SystemResetWarning,0831.3,5.00,000.00,022.2,021.7,000.0,030.3,023.8,14.6,0000.0,0003.96,0007.99,0003.74
2024-01-01 18:07:00,SystemResetWarning,0831.3,5.01,000.00,022.2,021.7,000.0,030.3,023.8,14.4,0000.0,0003.92,0007.97,0003.70
2024-01-01 18:08:00,SystemResetWarning,0831.3,5.00,000.00,022.2,021.7,000.0,030.3,023.8,14.3,0000.0,0003.89,0007.92,0003.67
2024-01-01 18:09:00,SystemResetWarning,0831.3,5.00,000.00,022.2,021.7,000.0,030.3,023.8,14.5,0000.0,0003.87,0007.84,0003.65
2024-01-01 18:10:00,SystemResetWarning,0831.3,5.00,000.00,022.3,021.8,000.0,030.3,023.8,14.8,0000.0,0003.85,0007.27,0003.62
2024-01-01 18:11:00,SystemResetWarning,0831.3,4.99,000.00,022.3,021.8,000.0,030.4,023.9,15.2,0000.0,0003.80,0007.01,0003.57
2024-01-01 18:12:00,SystemResetWarning,0831.3,5.00,000.00,022.3,021.8,000.0,030.4,023.9,15.0,0000.0,0003.73,0006.89,0003.51
2024-01-01 18:13:00,SystemResetWarning,0831.2,5.00,000.00,022.3,021.8,000.0,030.4,023.9,14.9,0000.0,0003.72,0006.98,0003.48
2024-01-01 18:14:00,SystemResetWarning,0831.2,5.00,000.00,022.4,021.8,000.0,030.4,023.9,14.9,0000.0,0003.70,0006.12,0003.44
2024-01-01 18:15:00,SystemResetWarning,0831.2,5.00,000.00,022.4,021.9,000.0,030.5,023.9,15.1,0000.0,0003.62,0005.57,0003.38
2024-01-01 18:16:00,SystemResetWarning,0831.2,5.00,000.00,022.4,021.9,000.0,030.5,024.0,14.9,0000.0,0003.55,0006.44,0003.32
2024-01-01 18:17:00,SystemResetWarning,0831.3,5.00,000.00,022.4,021.9,000.0,030.5,024.0,14.8,0000.0,0003.50,0006.42,0003.25
2024-01-01 18:18:00,SystemResetWarning,0831.2,5.00,000.00,022.4,021.9,000.0,030.5,024.0,14.3,0000.0,0003.45,0006.35,0003.19
2024-01-01 18:19:00,SystemResetWarning,0831.2,5.00,000.00,022.5,021.9,000.0,030.5,024.0,13.8,0000.0,0003.36,0005.93,0003.12
2024-01-01 18:20:00,SystemResetWarning,0831.1,5.00,000.00,022.5,022.0,000.0,030.6,024.1,14.3,0000.0,0003.29,0005.75,0003.03
2024-01-01 18:21:00,SystemResetWarning,0831.1,5.00,000.00,022.5,022.0,000.0,030.6,024.1,14.9,0000.0,0003.22,0005.48,0002.95
2024-01-01 18:22:00,SystemResetWarning,0831.1,5.00,000.00,022.5,022.0,000.0,030.6,024.1,15.0,0000.0,0003.21,0005.43,0002.96
2024-01-01 18:23:00,SystemResetWarning,0831.1,5.00,000.00,022.6,022.0,000.0,030.6,024.1,14.7,0000.0,0003.20,0005.35,0002.97
2024-01-01 18:24:00,SystemResetWarning,0831.1,5.00,000.00,022.6,022.0,000.0,030.7,024.1,14.6,0000.0,0003.17,0005.60,0002.93
2024-01-01 18:25:00,SystemResetWarning,0831.2,5.00,000.00,022.6,022.1,000.0,030.7,024.2,14.7,0000.0,0003.14,0006.76,0002.93
2024-01-01 18:26:00,SystemResetWarning,0831.1,5.00,000.00,022.6,022.1,000.0,030.7,024.2,14.7,0000.0,0003.16,0006.73,0002.95
2024-01-01 18:27:00,SystemResetWarning,0831.1,4.99,000.00,022.6,022.1,000.0,030.7,024.2,14.4,0000.0,0003.21,0005.70,0003.03
2024-01-01 18:28:00,SystemResetWarning,0831.1,5.00,000.00,022.7,022.1,000.0,030.7,024.2,14.2,0000.0,0003.23,0005.71,0003.09
2024-01-01 18:29:00,SystemResetWarning,0831.1,5.00,000.00,022.7,022.2,000.0,030.8,024.3,14.1,0000.0,0003.24,0005.74,0003.10
2024-01-01 18:30:00,SystemResetWarning,0831.0,5.00,000.00,022.7,022.2,000.0,030.8,024.3,14.0,0000.0,0003.22,0005.71,0003.09
2024-01-01 18:31:00,SystemResetWarning,0831.1,5.00,000.00,022.7,022.2,000.0,030.8,024.3,13.9,0000.0,0003.21,0005.93,0003.07
2024-01-01 18:32:00,SystemResetWarning,0831.1,5.00,000.00,022.8,022.2,000.0,030.8,024.3,13.9,0000.0,0003.26,0006.55,0003.11
2024-01-01 18:33:00,SystemResetWarning,0831.0,5.00,000.00,022.8,022.3,000.0,030.9,024.4,13.9,0000.0,0003.31,0006.69,0003.14
2024-01-01 18:34:00,SystemResetWarning,0831.0,5.00,000.00,022.8,022.3,000.0,030.9,024.4,13.9,0000.0,0003.32,0006.77,0003.14
2024-01-01 18:35:00,SystemResetWarning,0831.1,5.00,000.00,022.8,022.3,000.0,030.9,024.4,14.1,0000.0,0003.33,0006.44,0003.13
2024-01-01 18:36:00,SystemResetWarning,0831.1,4.99,000.00,022.9,022.3,000.0,030.9,024.4,14.1,0000.0,0003.32,0005.05,0003.12
2024-01-01 18:37:00,SystemResetWarning,0831.0,5.01,000.00,022.9,022.3,000.0,030.9,024.5,14.2,0000.0,0003.29,0004.98,0003.11
2024-01-01 18:38:00,SystemResetWarning,0831.0,5.01,000.00,022.9,022.4,000.0,031.0,024.5,14.1,0000.0,0003.26,0004.94,0003.06
2024-01-01 18:39:00,SystemResetWarning,0830.9,4.99,000.00,022.9,022.4,000.0,031.0,024.5,14.2,0000.0,0003.23,0004.75,0003.00
2024-01-01 18:40:00,SystemResetWarning,0830.9,4.99,000.00,022.9,022.4,000.0,031.0,024.5,14.2,0000.0,0003.22,0004.67,0002.95
2024-01-01 18:41:00,SystemResetWarning,0830.9,5.00,000.00,023.0,022.4,000.0,031.0,024.5,14.4,0000.0,0003.23,0004.71,0002.96
2024-01-01 18:42:00,SystemResetWarning,0830.9,5.01,000.00,023.0,022.4,000.0,031.1,024.6,14.5,0000.0,0003.23,0004.53,0002.93
2024-01-01 18:43:00,SystemResetWarning,0831.0,5.00,000.00,023.0,022.5,000.0,031.1,024.6,14.5,0000.0,0003.18,0003.99,0002.81
2024-01-01 18:44:00,SystemResetWarning,0830.9,4.98,000.00,023.0,022.5,000.0,031.1,024.6,14.4,0000.0,0003.06,0003.76,0002.66
2024-01-01 18:45:00,SystemResetWarning,0830.8,5.01,000.00,023.0,022.5,000.0,031.1,024.6,14.4,0000.0,0002.92,0003.56,0002.57
2024-01-01 18:46:00,SystemResetWarning,0830.9,5.00,000.00,023.1,022.5,000.0,031.1,024.6,14.5,0000.0,0002.82,0003.44,0002.48
2024-01-01 18:47:00,SystemResetWarning,0830.8,5.01,000.00,023.1,022.5,000.0,031.2,024.6,14.4,0000.0,0002.72,0003.31,0002.40
2024-01-01 18:48:00,SystemResetWarning,0830.8,5.00,000.00,023.1,022.6,000.0,031.2,024.7,14.4,0000.0,0002.64,0003.20,0002.34
2024-01-01 18:49:00,SystemResetWarning,0830.8,5.00,000.00,023.1,022.6,000.0,031.2,024.7,14.5,0000.0,0002.60,0003.18,0002.30
2024-01-01 18:50:00,SystemResetWarning,0830.8,5.00,000.00,023.1,022.6,000.0,031.2,024.7,14.5,0000.0,0002.61,0004.19,0002.29
2024-01-01 18:51:00,SystemResetWarning,0830.8,5.00,000.00,023.2,022.6,000.0,031.2,024.7,14.7,0000.0,0002.59,0005.08,0002.29
2024-01-01 18:52:00,SystemResetWarning,0830.7,5.00,000.00,023.2,022.6,000.0,031.3,024.8,14.7,0000.0,0002.65,0005.56,0002.35
2024-01-01 18:53:00,SystemResetWarning,0830.7,5.00,000.00,023.2,022.7,000.0,031.3,024.8,14.9,0000.0,0002.72,0005.63,0002.45
2024-01-01 18:54:00,SystemResetWarning,0830.7,5.00,000.00,023.2,022.7,000.0,031.3,024.8,15.0,0000.0,0002.77,0005.88,0002.55
2024-01-01 18:55:00,SystemResetWarning,0830.7,5.00,000.00,023.2,022.7,000.0,031.3,024.8,15.0,0000.0,0002.86,0006.17,0002.63
2024-01-01 18:56:00,SystemResetWarning,0830.7,5.00,000.00,023.3,022.7,000.0,031.3,024.8,15.0,0000.0,0003.00,0006.47,0002.74
2024-01-01 18:57:00,SystemResetWarning,0830.7,5.00,000.00,023.3,022.7,000.0,031.4,024.8,15.0,0000.0,0003.10,0006.75,0002.87
2024-01-01 18:58:00,SystemResetWarning,0830.6,5.01,000.00,023.3,022.8,000.0,031.4,024.9,14.7,0000.0,0003.18,0007.01,0002.96
2024-01-01 18:59:00,SystemResetWarning,0830.6,5.00,000.00,023.3,022.8,000.0,031.4,024.9,14.8,0000.0,0003.22,0007.77,0003.00
